sat.trackr.live / text

‹ back to catalog

ONEWEB-0117

NORAD 47263 · 2020-100F

PAYLOAD ACTIVE UNKNOWN

§ Identity

Operator
Country
UK
Launch date
2020-12-18
Launch site
VOSTO
Launch vehicle
Mass (kg)
RCS (m²)

Purposes: comms

External: N2YO · Heavens-Above · Gunter

§ Orbital elements

Epoch: 2026-09-12T05:00:30.467808Z

Period
109.72 min
Inclination
87.8992°
Eccentricity
0.0001890
Mean motion
13.12442410 rev/d
Perigee alt
1,212.3 km
Apogee alt
1,215.2 km
Semi-major
7,591.9 km
B*
1.0596e-3
RAAN
333.3764°
Arg perigee
95.5655°
Mean anomaly
264.5689°
Rev number
27,594

§ Raw data

ONEWEB-01171 47263U 20100F   26255.20868597  .00000394  00000+0  10596-2 0  99982 47263  87.8992 333.3764 0001890  95.5655 264.5689 13.12442410275948

JSON: /api/v1/satellites/47263 · /tle

For live sub-satellite position, see the globe view (requires WebGL).

§ Visibility from observer

Set your observer location to see the next 7 days of passes ≥ 10°. The values pass through the URL so the page stays shareable.

No JS? Fill the form by hand. The geolocation button needs JavaScript.